Location: Miss�
(46.9484°N, 0.1922°W)
Time: 20:24:30
(UTC+00:00)

USA 305 - Pass Details

Date: 02 March 2021
Orbit: 567 x 574 km, 54.0° (Epoch: 13 April)

Event Time Altitude Azimuth Distance (km) Brightness Sun altitude
Rises 19:42:14 0° 286° (WNW) 2,780 8.0 -20.2°
Reaches altitude 10° 19:44:41 10° 297° (WNW) 1,880 6.6 -20.6°
Maximum altitude 19:48:31 31° 0° (N) 1,014 4.2 -21.3°
Enters shadow 19:49:33 28° 28° (NNE) 1,098 4.2 -21.4°
